Weather Roundup
Issued by NWS

Home | Current Version | Previous Version | Text Only | Print | Product List | Glossary On
Versions: 1 2 3 4 5 6 7 8 9 10 11 12 13 14 15 16 17 18 19 20 21 22 23 24 25 26 27 28 29 30 31 32 33 34 35 36 37 38 39 40 41 42 43 44 45 46 47 48 49 50
000
NZUS93 KARX 230159
HRRWXR

CURRENT HOURLY OBSERVATIONS ACROSS
MUCH OF THE UPPER MISSISSIPPI VALLEY
NATIONAL WEATHER SERVICE LA CROSSE WI
900 PM CDT MON SEP 22 2014


...SOUTHEAST MINNESOTA...


CITY           SKY/WX    TMP DP  RH WIND       PRES   REMARKS
ROCHESTER      CLEAR     54  49  83 S6        30.21S
ROCHESTER/MAYO FAIR      63  47  56 S3        30.20R
WINONA         CLEAR     55  54  94 CALM      30.20R
AUSTIN         CLEAR     57  48  72 CALM      30.20R
ALBERT LEA     CLEAR     57  55  94 S3        30.19S
DODGE CENTER   CLEAR     54  48  82 S5        30.20R
PRESTON        CLEAR     57  53  86 SW5       30.21S
OWATONNA       CLEAR     55  50  82 SE6       30.19R
FARIBAULT      CLEAR     55  48  76 S3        30.18S
$$

...ELSEWHERE IN MINNESOTA...


CITY           SKY/WX    TMP DP  RH WIND       PRES   REMARKS
MINNEAPOLIS    CLEAR     64  50  60 S3        30.16S
INTNL FALLS    CLEAR     49  47  93 CALM      30.08R
DULUTH         CLEAR     58  49  72 W6        30.13R
RED WING       CLEAR     54  52  94 CALM      30.17S
REDWOOD FALLS  CLEAR     59  49  69 S8        30.14R
MANKATO        CLEAR     61  45  55 S5        30.17S
WORTHINGTON    PTCLDY    57  48  72 S6        30.18S
FAIRMONT       CLEAR     55  46  71 S6        30.18S
$$

...SOUTHWEST WISCONSIN...


CITY           SKY/WX    TMP DP  RH WIND       PRES   REMARKS
LA CROSSE      CLEAR     57  52  83 SE5       30.20R
PRAIRIE DU CHI CLEAR     55  51  88 CALM      30.21R
BOSCOBEL       CLEAR     53  51  93 CALM      30.23R
LONE ROCK      NOT AVBL
PLATTEVILLE    CLEAR     56  48  72 S6        30.24R
FORT MC COY    NOT AVBL
VIROQUA        FAIR      53  52  99 CALM      30.22R
WIS DELLS      CLEAR     54  49  83 S3        30.22R
$$

...ELSEWHERE IN WISCONSIN...


CITY           SKY/WX    TMP DP  RH WIND       PRES   REMARKS
MILWAUKEE      CLEAR     60  47  61 SW5       30.22R
MADISON        CLEAR     54  50  86 CALM      30.22R
GREEN BAY      CLEAR     55  50  83 SW3       30.18R
EAU CLAIRE     NOT AVBL
BLACK RVR FLS  FAIR      49  49 100 CALM      30.20R FOG
MEDFORD        CLEAR     52  49  90 SW3       30.19S
WAUSAU         CLEAR     55  50  83 CALM      30.17S
WIS RAPIDS     CLEAR     51  50  96 CALM      30.22R
MARSHFIELD     CLEAR     54  49  83 SW3       30.20R
RICE LAKE      CLEAR     55  52  90 CALM      30.19R
$$

...NORTHEAST IOWA...


CITY           SKY/WX    TMP DP  RH WIND       PRES   REMARKS
WATERLOO       CLEAR     57  49  74 S5        30.21S
DUBUQUE        CLEAR     53  48  83 SW3       30.24R
DECORAH        CLEAR     57  50  77 S3        30.21R
MASON CITY     CLEAR     53  49  86 S5        30.22R
CHARLES CITY   CLEAR     57  48  72 S6        30.22R
OELWEIN        CLEAR     57  50  77 S8        30.23R
$$

...ELSEWHERE IN IOWA...


CITY           SKY/WX    TMP DP  RH WIND       PRES   REMARKS
DES MOINES     PTCLDY    65  51  60 SE7       30.22S
IOWA CITY      CLEAR     55  49  80 CALM      30.25S
FORT DODGE     PTCLDY    55  48  76 S3        30.21S
MARSHALLTOWN   CLEAR     58  50  75 S6        30.23R
CEDAR RAPIDS   CLEAR     54  51  90 S3        30.23S
$$

...NORTHERN ILLINOIS...


CITY           SKY/WX    TMP DP  RH WIND       PRES   REMARKS
CHICAGO-OHARE  CLEAR     58  46  64 S8        30.25R
DUPAGE         CLEAR     53  49  86 S3        30.24R
CHICAGO-MIDWAY CLEAR     60  46  59 S6        30.25S
MOLINE         CLEAR     51  46  83 E3        30.25R
ROCKFORD       CLEAR     54  48  80 S5        30.27R
STERLING       CLEAR     52  46  82 CALM      30.25R
PEORIA         CLEAR     55  49  80 CALM      30.27R
$$

NOTE: "FAIR" INDICATES FEW OR NO CLOUDS BELOW 12,000 FEET WITH NO
SIGNIFICANT WEATHER AND/OR OBSTRUCTIONS TO VISIBILITY. WIND
SPEEDS ARE IN MILES-PER-HOUR.



USA.gov is the U.S. government's official web portal to all federal, state and local government web resources and services.